sat.trackr.live / text

‹ back to catalog

HULIANWANG DIGUI-162

NORAD 68136 · 2026-047H

PAYLOAD ACTIVE UNKNOWN

§ Identity

Operator
Country
PRC
Launch date
2026-03-12
Launch site
WSC
Launch vehicle
Mass (kg)
RCS (m²)

External: N2YO · Heavens-Above · Gunter

§ Orbital elements

Epoch: 2026-09-19T21:31:45.501024Z

Period
108.33 min
Inclination
50.0057°
Eccentricity
0.0001257
Mean motion
13.29324721 rev/d
Perigee alt
1,148.4 km
Apogee alt
1,150.3 km
Semi-major
7,527.4 km
B*
3.3919e-5
RAAN
76.2424°
Arg perigee
88.9470°
Mean anomaly
271.1546°
Rev number
2,566

§ Raw data

HULIANWANG DIGUI-1621 68136U 26047H   26262.89705441 -.00000108  00000+0  33919-4 0  99972 68136  50.0057  76.2424 0001257  88.9470 271.1546 13.29324721 25668

JSON: /api/v1/satellites/68136 · /tle

For live sub-satellite position, see the globe view (requires WebGL).

§ Visibility from observer

Set your observer location to see the next 7 days of passes ≥ 10°. The values pass through the URL so the page stays shareable.

No JS? Fill the form by hand. The geolocation button needs JavaScript.